Regional Weather Roundup
Issued by NWS Bismarck, ND

Home | Current Version | Previous Version | Text Only | Print | Product List | Glossary On
Versions: 1 2 3 4 5 6 7 8 9 10 11 12 13 14 15 16 17 18 19 20 21 22 23 24 25 26 27 28 29 30 31 32 33 34 35 36 37 38 39 40 41 42 43 44 45 46 47 48 49 50
000
ASUS43 KBIS 171020
RWRBIS

NWR BROADCAST TEXT
NATIONAL WEATHER SERVICE BISMARCK ND
500 AM CDT THU APR 17 2014

NOTE: "FAIR" INDICATES FEW OR NO CLOUDS BELOW 12,000 FEET WITH NO
SIGNIFICANT WEATHER AND/OR OBSTRUCTIONS TO VISIBILITY.


CITY           SKY/WX    TMP DP  RH WIND       PRES   REMARKS
WILLISTON        N/A    N/A N/A N/A MISG      30.24S
MINOT          CLOUDY    23  11  60 E8        30.31S WCI  14
MINOT AFB      CLOUDY    22  14  71 E7        30.31S WCI  14
BISMARCK       CLOUDY    25  16  68 E10       30.30R WCI  15
DICKINSON      CLOUDY    27  19  72 E10       30.18S WCI  17
GARRISON         N/A     24  14  65 E10       30.28R WCI  14
HETTINGER ARPT CLOUDY    28  20  71 SE10      30.19S WCI  19
JAMESTOWN      CLEAR     19  17  92 N6        30.28S WCI  11
CARRINGTON     FAIR      19  16  86 NE6       30.31S WCI  11
CROSBY         CLOUDY    23  19  86 E10       30.27S WCI  12
HARVEY         FAIR      19  14  79 E3        30.31S
HAZEN          CLOUDY    25  16  68 E6        30.29S WCI  18
LINTON         CLOUDY    25  18  74 E9        30.28R WCI  15
MANDAN         CLOUDY    25  16  68 E12       30.28S WCI  14
OAKES          FAIR      19  16  86 N8        30.28S WCI   9
RUGBY          FAIR      18  12  79 E8        30.32S WCI   7
STANLEY        CLOUDY    23  16  74 E10       30.25S WCI  12
TIOGA          CLOUDY    23  18  80 E13       30.27F WCI  11
WATFORD CITY   CLOUDY    27  18  69 SE17      30.20S WCI  14
$$

CITY           SKY/WX    TMP DP  RH WIND       PRES   REMARKS
GRAND FORKS    CLEAR     22  18  85 NW8       30.32R WCI  12
GRAND FORKS AF CLEAR     21  16  81 N9        30.33R WCI  11
DEVILS LAKE    CLEAR     18   9  68 N5        30.32S WCI  11
FARGO          CLEAR     21  15  78 N7        30.28S WCI  12
CANDO          FAIR      16  12  86 N7        30.33S WCI   6
CAVALIER       FAIR      21  14  73 N10       30.36S WCI  10
GRAFTON        FAIR      23  16  74 N9        30.34F WCI  13
GWINNER        SUNNY     23  19  86 N9        30.28S WCI  13
LANGDON        FAIR      18  10  73 NE7       30.31S WCI   8
ROLLA          FAIR      16  10  79 N7        30.33S WCI   6
WALHALLA       FAIR      18  14  86 NW6       30.37S WCI   9
$$

CITY           SKY/WX    TMP DP  RH WIND       PRES   REMARKS
ABERDEEN       PTCLDY    17  14  88 N8        30.28R WCI   7
MOBRIDGE       CLOUDY    26  14  60 SE6       30.25R WCI  19
BUFFALO          N/A     29  24  82 SE14      30.08S WCI  18
RAPID CITY     CLOUDY    28  25  88 S10       30.15F WCI  19
GLASGOW        CLOUDY    24  20  84 E15       30.10F WCI  11
SIDNEY         CLOUDY    28  21  74 E6        30.21F
WOLF POINT     CLOUDY    30  20  66 E10       30.17F
GLENDIVE       PTCLDY    27  19  74 E8        30.15F WCI  18
MILES CITY     CLOUDY    32  27  81 E10       30.09F
BAKER          LGT SNOW  27  24  89 SE16      30.13F FOG     WCI  15
$$

CITY           SKY/WX    TMP DP  RH WIND       PRES   REMARKS
BILLINGS       CLOUDY    35  31  85 NW3       30.02S
GREAT FALLS    FAIR      34  28  79 S9        29.90F
REGINA         CLOUDY    23  16  74 SE18      30.24F WCI   9
ESTEVAN        CLOUDY    21  16  79 SE15      30.28F WCI   8
$$




USA.gov is the U.S. government's official web portal to all federal, state and local government web resources and services.